1532797200.74,34141,21.88,74154.3,9.23,-5.51,-3.47,0,*77
1532797201.98,34142,21.88,74154.8,9.23,-5.51,-3.43,0,*70
1532797203.21,34143,21.88,74154.3,9.23,-5.51,-3.43,0,*71
1532797204.45,34144,21.88,74154.5,9.23,-5.51,-3.47,0,*72
1532797205.66,34145,21.88,74152.5,9.25,-5.47,-3.43,0,*76
1532797206.89,34146,21.88,74152.5,9.23,-5.51,-3.43,0,*74
1532797208.13,34147,21.88,74154.8,9.23,-5.51,-3.47,0,*71
1532797209.33,34148,21.88,74154.0,9.25,-5.47,-3.43,0,*7B
1532797210.55,34149,21.88,74152.0,9.25,-5.47,-3.43,0,*7A
1532797211.75,34150,21.88,74152.5,9.25,-5.47,-3.43,0,*72
1532797212.99,34151,21.88,74152.5,9.23,-5.51,-3.47,0,*76
1532797214.2,34152,21.88,74152.3,9.25,-5.47,-3.43,0,*70
1532797215.41,34153,21.88,74150.0,9.25,-5.47,-3.43,0,*71
1532797216.62,34154,21.88,74154.5,9.25,-5.47,-3.43,0,*76
1532797217.85,34155,21.88,74150.5,9.27,-5.51,-3.43,0,*72
1532797219.06,34156,21.88,74154.5,9.25,-5.51,-3.43,0,*73
1532797220.27,34157,21.88,74152.3,9.25,-5.51,-3.43,0,*72
1532797221.48,34158,21.88,74150.8,9.25,-5.51,-3.43,0,*7D
1532797222.7,34159,21.88,74150.5,9.31,-5.55,-3.39,0,*70
1532797223.93,34160,21.88,74152.5,9.25,-5.61,-3.43,0,*75
1532797225.19,34161,21.88,74152.3,9.27,-5.61,-3.43,0,*76
1532797226.44,34162,21.88,74156.3,9.27,-5.61,-3.43,0,*75
1532797227.67,34163,21.88,74154.3,9.25,-5.61,-3.43,0,*76
1532797228.9,34164,21.88,74152.0,9.25,-5.61,-3.51,0,*72
1532797230.13,34165,21.88,74152.0,9.25,-5.61,-3.55,0,*77
1532797231.34,34166,21.88,74158.3,9.25,-5.51,-3.51,0,*73
1532797232.55,34167,21.88,74154.3,9.25,-5.51,-3.51,0,*72
1532797233.78,34168,21.88,74152.0,9.25,-5.61,-3.51,0,*7E
1532797235.01,34169,21.88,74148.8,9.25,-5.61,-3.51,0,*7F
1532797236.22,34170,21.88,74152.8,9.25,-5.51,-3.51,0,*74
1532797237.43,34171,21.88,74152.3,9.25,-5.51,-3.51,0,*75
1532797238.67,34172,21.88,74152.3,9.23,-5.55,-3.47,0,*73
1532797239.91,34173,21.88,74154.5,9.27,-5.51,-3.43,0,*76
1532797241.14,34174,21.88,74150.0,9.27,-5.51,-3.43,0,*71
1532797242.36,34175,21.88,74148.5,9.27,-5.51,-3.39,0,*7D
1532797243.59,34176,21.88,74154.0,9.27,-5.51,-3.43,0,*73
1532797244.8,34177,21.88,74154.3,9.31,-5.47,-3.39,0,*7F
1532797246.01,34178,21.88,74152.3,9.31,-5.47,-3.39,0,*70
1532797247.22,34179,21.88,74152.8,9.31,-5.47,-3.39,0,*71
1532797248.46,34180,21.88,74158.0,9.27,-5.51,-3.51,0,*79
1532797249.7,34181,21.88,74152.3,9.27,-5.51,-3.43,0,*7B
1532797250.93,34182,21.88,74154.0,9.27,-5.51,-3.43,0,*78
1532797252.17,34183,21.88,74152.0,9.27,-5.51,-3.43,0,*79
1532797253.41,34184,21.88,74154.3,9.27,-5.51,-3.43,0,*7E
1532797254.64,34185,21.88,74152.3,9.27,-5.51,-3.43,0,*7F
1532797255.85,34186,21.88,74152.5,9.31,-5.47,-3.39,0,*71
1532797257.06,34187,21.88,74152.8,9.31,-5.43,-3.39,0,*74
1532797258.27,34188,21.88,74154.3,9.27,-5.47,-3.39,0,*78
1532797259.49,34189,21.88,74154.5,9.27,-5.47,-3.39,0,*79
1532797260.7,34190,21.88,74152.8,9.27,-5.47,-3.39,0,*71
1532797261.91,34191,21.88,74156.0,9.31,-5.43,-3.35,0,*7F
1532797263.12,34192,21.88,74154.5,9.31,-5.47,-3.39,0,*74
1532797264.35,34193,21.88,74152.3,9.27,-5.51,-3.43,0,*78
1532797265.59,34194,21.88,74156.0,9.27,-5.51,-3.43,0,*7F
1532797266.8,34195,21.88,74152.8,9.27,-5.51,-3.39,0,*73
1532797268.04,34196,21.88,74152.0,9.27,-5.51,-3.43,0,*7D
1532797269.28,34197,21.88,74152.8,9.27,-5.51,-3.43,0,*7C
1532797270.49,34198,21.88,74154.5,9.31,-5.47,-3.35,0,*72
1532797271.7,34199,21.88,74152.0,9.31,-5.47,-3.35,0,*73
1532797272.96,34200,21.88,74154.8,9.27,-5.61,-3.43,0,*72
1532797274.17,34201,21.88,74152.8,9.31,-5.55,-3.39,0,*7E
1532797275.38,34202,21.88,74152.8,9.31,-5.47,-3.35,0,*72
1532797276.59,34203,21.88,74154.3,9.31,-5.47,-3.39,0,*7F
1532797277.8,34204,21.88,74154.5,9.31,-5.47,-3.39,0,*78
1532797279.04,34205,21.88,74152.5,9.27,-5.51,-3.43,0,*74
1532797280.25,34206,21.88,74152.0,9.31,-5.55,-3.39,0,*79
1532797281.47,34207,21.88,74154.5,9.31,-5.47,-3.39,0,*7B
1532797282.68,34208,21.88,74152.5,9.31,-5.47,-3.39,0,*74
1532797283.89,34209,21.88,74150.5,9.31,-5.47,-3.39,0,*75
1532797285.1,34210,21.88,74152.0,9.31,-5.55,-3.39,0,*7E
1532797286.28,34211,21.88,74152.3,9.33,-5.43,-3.35,0,*76
1532797287.49,34212,21.88,74152.0,9.31,-5.47,-3.39,0,*7F
1532797288.71,34213,21.88,74148.8,9.31,-5.55,-3.35,0,*71
1532797289.92,34214,21.88,74154.5,9.31,-5.47,-3.39,0,*79
1532797291.14,34215,21.88,74154.0,9.31,-5.47,-3.27,0,*77
1532797292.35,34216,21.88,74152.0,9.31,-5.47,-3.35,0,*77
1532797293.56,34217,21.88,74152.3,9.31,-5.55,-3.39,0,*79
1532797294.77,34218,21.88,74152.8,9.31,-5.47,-3.39,0,*75
1532797295.99,34219,21.88,74152.0,9.31,-5.55,-3.35,0,*7B
1532797297.2,34220,21.88,74150.3,9.31,-5.47,-3.39,0,*7E
1532797298.38,34221,21.88,74152.8,9.33,-5.43,-3.35,0,*75
1532797299.57,34222,21.88,74152.8,9.33,-5.51,-3.35,0,*75
1532797300.76,34223,21.88,74150.5,9.33,-5.51,-3.35,0,*74
1532797301.97,34224,21.88,74152.0,9.35,-5.51,-3.35,0,*75
1532797303.16,34225,21.88,74148.8,9.33,-5.51,-3.35,0,*72
1532797304.34,34226,21.88,74150.3,9.33,-5.43,-3.35,0,*72
1532797305.53,34227,21.88,74148.5,9.33,-5.51,-3.35,0,*70
1532797306.72,34228,21.88,74148.5,9.33,-5.51,-3.35,0,*7F
1532797307.91,34229,21.88,74154.3,9.33,-5.51,-3.35,0,*7E
1532797309.12,34230,21.88,74154.3,9.35,-5.51,-3.35,0,*70
1532797310.31,34231,21.88,74148.5,9.33,-5.51,-3.35,0,*77
1532797311.52,34232,21.88,74152.0,9.33,-5.55,-3.47,0,*75
1532797312.75,34233,21.88,74150.5,9.33,-5.65,-3.43,0,*73
1532797313.96,34234,21.88,74150.8,9.33,-5.55,-3.43,0,*77
1532797315.2,34235,21.88,74152.5,9.35,-5.55,-3.43,0,*70
1532797316.41,34236,21.88,74148.8,9.33,-5.55,-3.43,0,*75
1532797317.65,34237,21.88,74156.8,9.35,-5.55,-3.43,0,*72
1532797318.86,34238,21.88,74154.3,9.33,-5.55,-3.43,0,*7B
1532797320.09,34239,21.88,74148.3,9.33,-5.65,-3.43,0,*79
1532797321.32,34240,21.88,74154.0,9.33,-5.65,-3.47,0,*73
1532797322.56,34241,21.88,74156.3,9.35,-5.51,-3.43,0,*77
1532797323.79,34242,21.88,74156.0,9.35,-5.55,-3.43,0,*70
1532797325.03,34243,21.88,74154.3,9.35,-5.55,-3.47,0,*75
1532797326.26,34244,21.88,74156.0,9.33,-5.65,-3.47,0,*77
1532797327.49,34245,21.88,74158.5,9.33,-5.65,-3.47,0,*76
1532797328.7,34246,21.88,74152.0,9.33,-5.55,-3.43,0,*72
1532797329.94,34247,21.88,74148.5,9.35,-5.55,-3.43,0,*75
1532797331.15,34248,21.88,74152.3,9.33,-5.55,-3.43,0,*7C
1532797332.39,34249,21.88,74152.3,9.35,-5.55,-3.43,0,*7B
1532797333.62,34250,21.88,74152.5,9.35,-5.55,-3.43,0,*73
1532797334.83,34251,21.88,74154.5,9.33,-5.55,-3.43,0,*74
1532797336.07,34252,21.88,74154.5,9.35,-5.55,-3.43,0,*71
1532797337.33,34253,21.88,74150.5,9.35,-5.65,-3.43,0,*73
1532797338.58,34254,21.88,74152.5,9.35,-5.65,-3.43,0,*74
1532797339.84,34255,21.88,74156.0,9.35,-5.65,-3.43,0,*75
1532797341.05,34256,21.88,74156.5,9.33,-5.55,-3.43,0,*73
1532797342.29,34257,21.88,74154.5,9.35,-5.55,-3.43,0,*74
1532797343.52,34258,21.88,74154.3,9.35,-5.55,-3.43,0,*7B
1532797344.76,34259,21.88,74152.8,9.35,-5.55,-3.43,0,*7A
1532797346.0,34260,21.88,74154.8,9.35,-5.55,-3.43,0,*70
1532797347.25,34261,21.88,74154.8,9.35,-5.69,-3.43,0,*7E
1532797348.51,34262,21.88,74152.3,9.35,-5.69,-3.43,0,*7D
1532797349.74,34263,21.88,74152.0,9.33,-5.65,-3.43,0,*76
1532797351.0,34264,21.88,74154.0,9.35,-5.65,-3.43,0,*77
1532797352.26,34265,21.88,74152.5,9.35,-5.65,-3.43,0,*76
1532797353.49,34266,21.88,74156.0,9.35,-5.55,-3.43,0,*76
1532797354.68,34267,21.88,74154.3,9.37,-5.51,-3.39,0,*7C
1532797355.89,34268,21.88,74152.5,9.35,-5.51,-3.35,0,*7D
1532797357.1,34269,21.88,74158.0,9.35,-5.55,-3.35,0,*78
1532797358.29,34270,21.88,74156.3,9.37,-5.47,-3.31,0,*75
1532797359.47,34271,21.88,74156.8,9.37,-5.47,-3.31,0,*74
1532797360.67,34272,21.88,74152.5,9.37,-5.61,-3.31,0,*73
1532797361.88,34273,21.88,74158.3,9.39,-5.51,-3.31,0,*7F
1532797363.06,34274,21.88,74156.0,9.37,-5.51,-3.31,0,*76
1532797364.25,34275,21.88,74150.5,9.37,-5.51,-3.27,0,*70
1532797365.45,34276,21.88,74156.0,9.37,-5.61,-3.31,0,*77
1532797366.68,34277,21.88,74152.3,9.37,-5.61,-3.43,0,*73
1532797367.86,34278,21.88,74156.3,9.37,-5.47,-3.39,0,*75
1532797369.07,34279,21.88,74156.0,9.39,-5.47,-3.31,0,*72
1532797370.27,34280,21.88,74152.3,9.39,-5.51,-3.31,0,*73
1532797371.48,34281,21.88,74154.5,9.37,-5.61,-3.31,0,*7F
1532797372.68,34282,21.88,74152.3,9.37,-5.61,-3.31,0,*7C
1532797373.91,34283,21.88,74152.3,9.39,-5.61,-3.39,0,*7B
1532797375.12,34284,21.88,74154.0,9.37,-5.65,-3.39,0,*76
1532797376.32,34285,21.88,74152.5,9.37,-5.65,-3.39,0,*77
1532797377.55,34286,21.88,74156.8,9.39,-5.51,-3.43,0,*70
1532797378.76,34287,21.88,74156.3,9.37,-5.61,-3.39,0,*71
1532797379.98,34288,21.88,74156.0,9.39,-5.61,-3.31,0,*78
1532797381.2,34289,21.88,74156.3,9.39,-5.51,-3.27,0,*7D
1532797382.4,34290,21.88,74158.0,9.39,-5.51,-3.31,0,*72
1532797383.59,34291,21.88,74152.3,9.37,-5.51,-3.31,0,*7D
1532797384.81,34292,21.88,74156.0,9.39,-5.65,-3.31,0,*77
1532797386.04,34293,21.88,74156.0,9.39,-5.61,-3.31,0,*72
1532797387.27,34294,21.88,74156.0,9.39,-5.61,-3.31,0,*75
1532797388.49,34295,21.88,74158.0,9.39,-5.73,-3.39,0,*7F
1532797389.74,34296,21.88,74158.0,9.39,-5.73,-3.51,0,*72
1532797390.99,34297,21.88,74158.5,9.39,-5.77,-3.51,0,*77
1532797392.22,34298,21.88,74152.8,9.41,-5.73,-3.39,0,*7D
1532797393.45,34299,21.88,74154.5,9.39,-5.61,-3.39,0,*70
1532797394.68,34300,21.88,74156.5,9.39,-5.65,-3.39,0,*75
1532797395.91,34301,21.88,74154.5,9.39,-5.61,-3.39,0,*70
1532797397.14,34302,21.88,74158.3,9.39,-5.61,-3.39,0,*73
1532797398.37,34303,21.88,74152.8,9.39,-5.61,-3.39,0,*72
1532797399.6,34304,21.88,74156.5,9.39,-5.73,-3.35,0,*7A
1532797400.79,34305,21.88,74152.5,9.43,-5.55,-3.35,0,*72
1532797402.03,34306,21.88,74156.0,9.41,-5.69,-3.35,0,*7C
1532797403.27,34307,21.88,74152.5,9.41,-5.61,-3.35,0,*75
1532797404.51,34308,21.88,74154.3,9.41,-5.61,-3.35,0,*7A
1532797405.7,34309,21.88,74154.8,9.43,-5.55,-3.35,0,*7E
1532797406.9,34310,21.88,74156.5,9.43,-5.55,-3.31,0,*72
1532797408.14,34311,21.88,74154.8,9.41,-5.69,-3.35,0,*7A
1532797409.33,34312,21.88,74154.0,9.43,-5.55,-3.31,0,*70
1532797410.55,34313,21.88,74158.0,9.43,-5.65,-3.31,0,*72
1532797411.77,34314,21.88,74152.0,9.41,-5.55,-3.35,0,*70
1532797412.99,34315,21.88,74152.3,9.41,-5.55,-3.35,0,*71
1532797414.22,34316,21.88,74158.8,9.41,-5.73,-3.39,0,*7A
1532797415.46,34317,21.88,74158.8,9.41,-5.69,-3.39,0,*70
1532797416.66,34318,21.88,74152.3,9.43,-5.55,-3.31,0,*7A
1532797417.87,34319,21.88,74152.3,9.43,-5.65,-3.31,0,*78
1532797419.11,34320,21.88,74156.8,9.45,-5.65,-3.35,0,*70
1532797420.35,34321,21.88,74152.5,9.41,-5.69,-3.39,0,*75
1532797421.59,34322,21.88,74154.5,9.41,-5.65,-3.31,0,*72
1532797422.83,34323,21.88,74154.8,9.43,-5.77,-3.43,0,*77
1532797424.06,34324,21.88,74154.8,9.43,-5.77,-3.43,0,*70
1532797425.28,34325,21.88,74152.0,9.43,-5.69,-3.35,0,*7F
1532797426.49,34326,21.88,74154.5,9.43,-5.77,-3.31,0,*77
1532797427.73,34327,21.88,74154.5,9.41,-5.73,-3.39,0,*78
1532797428.94,34328,21.88,74156.3,9.43,-5.69,-3.31,0,*76
1532797430.16,34329,21.88,74156.5,9.43,-5.69,-3.35,0,*73
1532797431.38,34330,21.88,74156.3,9.43,-5.69,-3.35,0,*7B
1532797432.59,34331,21.88,74156.8,9.43,-5.65,-3.31,0,*72
1532797433.81,34332,21.88,74156.5,9.43,-5.65,-3.35,0,*75
1532797435.02,34333,21.88,74154.0,9.43,-5.69,-3.31,0,*7C
1532797436.26,34334,21.88,74158.8,9.41,-5.73,-3.39,0,*7A
1532797437.47,34335,21.88,74158.0,9.43,-5.69,-3.31,0,*7A
1532797438.68,34336,21.88,74154.0,9.43,-5.69,-3.31,0,*79
1532797439.92,34337,21.88,74156.3,9.45,-5.65,-3.31,0,*72
1532797441.16,34338,21.88,74156.8,9.45,-5.65,-3.31,0,*7D
1532797442.4,34339,21.88,74156.8,9.45,-5.65,-3.31,0,*7C
1532797443.63,34340,21.88,74158.3,9.45,-5.65,-3.31,0,*72
1532797444.84,34341,21.88,74156.0,9.47,-5.61,-3.27,0,*72
1532797446.08,34342,21.88,74156.0,9.45,-5.69,-3.31,0,*7C
1532797447.29,34343,21.88,74156.3,9.47,-5.65,-3.27,0,*74
1532797448.53,34344,21.88,74154.8,9.45,-5.69,-3.23,0,*79
1532797449.73,34345,21.88,74156.8,9.47,-5.73,-3.19,0,*78
1532797450.96,34346,21.88,74156.3,9.45,-5.65,-3.23,0,*77
1532797452.2,34347,21.88,74154.5,9.45,-5.65,-3.23,0,*76
1532797453.43,34348,21.88,74158.8,9.45,-5.65,-3.23,0,*79
1532797454.64,34349,21.88,74152.5,9.45,-5.55,-3.23,0,*7B
1532797455.87,34350,21.88,74154.3,9.45,-5.65,-3.23,0,*70
1532797457.08,34351,21.88,74156.0,9.47,-5.61,-3.19,0,*7E
1532797458.32,34352,21.88,74156.5,9.45,-5.77,-3.35,0,*76
1532797459.56,34353,21.88,74158.3,9.45,-5.65,-3.31,0,*70
1532797460.76,34354,21.88,74156.0,9.47,-5.73,-3.27,0,*75
1532797461.98,34355,21.88,74158.0,9.47,-5.65,-3.27,0,*73
1532797463.19,34356,21.88,74152.3,9.47,-5.65,-3.27,0,*70
1532797464.4,34357,21.88,74156.3,9.47,-5.61,-3.19,0,*78
1532797465.6,34358,21.88,74156.5,9.47,-5.61,-3.19,0,*77
1532797466.8,34359,21.88,74156.8,9.47,-5.73,-3.19,0,*75
1532797468.01,34360,21.88,74156.0,9.47,-5.77,-3.19,0,*7B
1532797469.24,34361,21.88,74156.5,9.45,-5.65,-3.23,0,*72
1532797470.42,34362,21.88,74156.0,9.47,-5.51,-3.19,0,*7D
1532797471.61,34363,21.88,74154.8,9.47,-5.47,-3.15,0,*77
1532797472.79,34364,21.88,74154.3,9.47,-5.47,-3.15,0,*70
1532797473.97,34365,21.88,74156.0,9.47,-5.51,-3.15,0,*76
1532797475.16,34366,21.88,74154.0,9.47,-5.47,-3.15,0,*72
1532797476.34,34367,21.88,74158.5,9.47,-5.47,-3.15,0,*73
1532797477.52,34368,21.88,74156.5,9.47,-5.47,-3.15,0,*7C
1532797478.71,34369,21.88,74152.3,9.47,-5.47,-3.15,0,*7D
1532797479.89,34370,21.88,74156.0,9.47,-5.47,-3.15,0,*75
1532797481.1,34371,21.88,74158.5,9.49,-5.47,-3.07,0,*79
1532797482.31,34372,21.88,74156.8,9.49,-5.39,-3.07,0,*73
1532797483.53,34373,21.88,74154.8,9.49,-5.47,-3.07,0,*7B
1532797484.74,34374,21.88,74154.3,9.49,-5.51,-3.19,0,*74
1532797485.95,34375,21.88,74154.0,9.49,-5.51,-3.15,0,*79
1532797487.16,34376,21.88,74156.3,9.49,-5.47,-3.15,0,*7D
1532797488.37,34377,21.88,74154.5,9.49,-5.51,-3.07,0,*78
1532797489.58,34378,21.88,74156.8,9.49,-5.47,-3.07,0,*70
1532797490.79,34379,21.88,74158.5,9.49,-5.51,-3.15,0,*75
1532797492.01,34380,21.88,74152.0,9.49,-5.51,-3.19,0,*7F
1532797493.24,34381,21.88,74154.8,9.49,-5.61,-3.19,0,*7D
1532797494.48,34382,21.88,74158.5,9.49,-5.65,-3.27,0,*77
1532797495.71,34383,21.88,74152.8,9.49,-5.61,-3.27,0,*72
1532797496.95,34384,21.88,74156.3,9.49,-5.61,-3.27,0,*75
1532797498.16,34385,21.88,74156.5,9.53,-5.55,-3.15,0,*79
1532797499.37,34386,21.88,74154.5,9.49,-5.51,-3.19,0,*79
1532797500.59,34387,21.88,74152.0,9.49,-5.39,-3.07,0,*79
1532797501.8,34388,21.88,74154.5,9.49,-5.47,-3.07,0,*7F
1532797503.01,34389,21.88,74156.8,9.49,-5.39,-3.03,0,*73
1532797504.22,34390,21.88,74156.8,9.49,-5.39,-3.03,0,*7B
1532797505.43,34391,21.88,74154.3,9.49,-5.39,-3.03,0,*7A
1532797506.64,34392,21.88,74154.5,9.53,-5.43,-3.03,0,*7F
1532797507.85,34393,21.88,74152.8,9.53,-5.43,-2.99,0,*7C
1532797509.08,34394,21.88,74158.0,9.49,-5.61,-3.15,0,*75
1532797510.29,34395,21.88,74152.0,9.53,-5.43,-3.03,0,*78
1532797511.5,34396,21.88,74158.5,9.53,-5.35,-2.99,0,*78
1532797512.71,34397,21.88,74158.0,9.49,-5.39,-3.03,0,*7C
1532797513.95,34398,21.88,74156.3,9.53,-5.31,-2.87,0,*7D
1532797515.17,34399,21.88,74154.5,9.49,-5.35,-2.95,0,*70
1532797516.41,34400,21.88,74156.5,9.53,-5.31,-2.87,0,*7B
1532797517.64,34401,21.88,74156.3,9.49,-5.27,-2.87,0,*76
1532797518.88,34402,21.88,74154.5,9.53,-5.31,-2.87,0,*79
1532797520.09,34403,21.88,74156.5,9.49,-5.35,-2.91,0,*70
1532797521.33,34404,21.88,74156.3,9.53,-5.23,-2.79,0,*7D
1532797522.56,34405,21.88,74156.0,9.53,-5.23,-2.79,0,*7C
1532797523.8,34406,21.88,74152.0,9.53,-5.23,-2.79,0,*7F
1532797525.04,34407,21.88,74158.3,9.53,-5.23,-2.79,0,*7E
1532797526.27,34408,21.88,74158.8,9.49,-5.27,-2.91,0,*78
1532797527.51,34409,21.88,74158.5,9.55,-5.19,-2.75,0,*73
1532797528.78,34410,21.88,74158.8,9.53,-5.23,-2.75,0,*74
1532797530.04,34411,21.88,74158.5,9.53,-5.19,-2.75,0,*7C
1532797531.3,34412,21.88,74156.5,9.53,-5.19,-2.75,0,*7F
1532797532.56,34413,21.88,74154.0,9.53,-5.11,-2.75,0,*76
1532797533.83,34414,21.88,74152.3,9.53,-5.19,-2.67,0,*7A
1532797535.07,34415,21.88,74156.8,9.55,-5.07,-2.63,0,*76
1532797536.31,34416,21.88,74156.8,9.55,-5.07,-2.59,0,*7C
1532797537.55,34417,21.88,74154.3,9.55,-5.07,-2.59,0,*7D
1532797538.79,34418,21.88,74156.0,9.55,-5.07,-2.59,0,*72
1532797540.03,34419,21.88,74156.5,9.55,-5.15,-2.71,0,*7A
1532797541.27,34420,21.88,74156.0,9.55,-5.15,-2.71,0,*70
1532797542.51,34421,21.88,74158.8,9.55,-5.07,-2.63,0,*71
1532797543.75,34422,21.88,74152.3,9.55,-5.07,-2.59,0,*7B
1532797544.98,34423,21.88,74154.3,9.55,-5.07,-2.59,0,*7A
1532797546.22,34424,21.88,74156.3,9.55,-5.03,-2.59,0,*79
1532797547.46,34425,21.88,74158.5,9.55,-5.15,-2.63,0,*76
1532797548.7,34426,21.88,74154.5,9.55,-5.15,-2.71,0,*76
1532797549.94,34427,21.88,74154.5,9.55,-5.15,-2.71,0,*77
1532797551.18,34428,21.88,74154.0,9.55,-5.15,-2.63,0,*7B
1532797552.43,34429,21.88,74152.3,9.55,-5.15,-2.63,0,*7A
1532797553.67,34430,21.88,74158.5,9.55,-5.07,-2.63,0,*71
1532797554.91,34431,21.88,74156.0,9.55,-5.07,-2.47,0,*76
1532797556.09,34432,21.88,74154.3,9.55,-4.99,-2.43,0,*77
1532797557.3,34433,21.88,74152.8,9.55,-4.99,-2.47,0,*72
1532797558.53,34434,21.88,74154.8,9.57,-4.89,-2.43,0,*72
1532797559.73,34435,21.88,74154.3,9.57,-4.99,-2.43,0,*72
1532797560.94,34436,21.88,74152.3,9.57,-4.99,-2.43,0,*71
1532797562.14,34437,21.88,74158.3,9.55,-4.85,-2.43,0,*7F
1532797563.37,34438,21.88,74154.8,9.57,-4.77,-2.31,0,*7A
1532797564.58,34439,21.88,74156.0,9.55,-4.85,-2.31,0,*74
1532797565.81,34440,21.88,74154.3,9.57,-4.85,-2.31,0,*78
1532797567.02,34441,21.88,74152.3,9.55,-4.89,-2.35,0,*73
1532797568.23,34442,21.88,74154.8,9.55,-4.85,-2.31,0,*78
1532797569.46,34443,21.88,74156.8,9.57,-4.85,-2.31,0,*7B
1532797570.7,34444,21.88,74154.3,9.57,-4.85,-2.31,0,*7C
1532797571.93,34445,21.88,74156.0,9.57,-4.73,-2.31,0,*74
1532797573.16,34446,21.88,74156.0,9.57,-4.77,-2.35,0,*77
1532797574.39,34447,21.88,74154.3,9.57,-4.77,-2.35,0,*76
1532797575.62,34448,21.88,74152.8,9.57,-4.85,-2.35,0,*74
1532797576.83,34449,21.88,74154.8,9.55,-4.77,-2.35,0,*7A
1532797578.03,34450,21.88,74154.3,9.55,-4.77,-2.35,0,*72
1532797579.26,34451,21.88,74152.0,9.57,-4.85,-2.35,0,*7C
1532797580.49,34452,21.88,74154.0,9.57,-4.85,-2.31,0,*7B
1532797581.73,34453,21.88,74152.8,9.57,-4.73,-2.23,0,*70
1532797582.96,34454,21.88,74156.0,9.57,-4.77,-2.23,0,*73
1532797584.17,34455,21.88,74158.0,9.55,-4.73,-2.23,0,*74
1532797585.4,34456,21.88,74158.8,9.57,-4.73,-2.19,0,*7C
1532797586.59,34457,21.88,74156.3,9.55,-4.61,-2.19,0,*7C
1532797587.8,34458,21.88,74156.8,9.57,-4.65,-2.19,0,*75
1532797589.04,34459,21.88,74158.3,9.57,-4.61,-2.07,0,*7F
1532797590.22,34460,21.88,74156.3,9.55,-4.61,-2.19,0,*78
1532797591.41,34461,21.88,74158.0,9.55,-4.65,-2.19,0,*7D
1532797592.65,34462,21.88,74152.5,9.57,-4.65,-2.11,0,*74
1532797593.89,34463,21.88,74152.3,9.57,-4.61,-2.07,0,*76
1532797595.1,34464,21.88,74156.5,9.59,-4.61,-2.03,0,*7B
1532797596.34,34465,21.88,74154.3,9.57,-4.61,-2.11,0,*77
1532797597.57,34466,21.88,74152.8,9.57,-4.53,-2.11,0,*75
1532797598.81,34467,21.88,74152.5,9.57,-4.65,-2.07,0,*76
1532797600.05,34468,21.88,74156.5,9.57,-4.65,-2.11,0,*7E
1532797601.29,34469,21.88,74156.8,9.57,-4.61,-2.07,0,*7C
1532797602.5,34470,21.88,74156.5,9.55,-4.65,-2.07,0,*72
1532797603.74,34471,21.88,74152.8,9.57,-4.53,-2.07,0,*74
1532797604.94,34472,21.88,74154.5,9.59,-4.45,-1.95,0,*76
1532797606.14,34473,21.88,74152.3,9.59,-4.45,-1.95,0,*77
1532797607.38,34474,21.88,74152.0,9.57,-4.53,-1.99,0,*75
1532797608.62,34475,21.88,74158.8,9.57,-4.61,-2.07,0,*71
1532797609.86,34476,21.88,74154.5,9.57,-4.61,-2.07,0,*72
1532797611.1,34477,21.88,74154.5,9.57,-4.49,-2.07,0,*79
1532797612.33,34478,21.88,74158.0,9.57,-4.49,-1.99,0,*72
1532797613.57,34479,21.88,74156.0,9.57,-4.49,-1.83,0,*78
1532797614.81,34480,21.88,74156.0,9.57,-4.41,-1.87,0,*72
1532797616.01,34481,21.88,74156.5,9.59,-4.37,-1.91,0,*7B
1532797617.22,34482,21.88,74154.5,9.59,-4.37,-1.83,0,*7B
1532797618.44,34483,21.88,74154.0,9.59,-4.37,-1.83,0,*7A
1532797619.65,34484,21.88,74156.8,9.59,-4.37,-1.83,0,*7D
1532797620.83,34485,21.88,74152.8,9.59,-4.37,-1.79,0,*79
1532797622.05,34486,21.88,74158.8,9.61,-4.33,-1.79,0,*75
1532797623.24,34487,21.88,74154.5,9.59,-4.33,-1.79,0,*7F
1532797624.45,34488,21.88,74158.0,9.59,-4.37,-1.83,0,*71
1532797625.65,34489,21.88,74152.8,9.59,-4.33,-1.79,0,*71
1532797626.86,34490,21.88,74156.3,9.59,-4.37,-1.83,0,*78
1532797628.04,34491,21.88,74156.3,9.59,-4.45,-1.79,0,*79
1532797629.22,34492,21.88,74156.5,9.59,-4.37,-1.79,0,*7F
1532797630.41,34493,21.88,74152.0,9.59,-4.37,-1.79,0,*7E
1532797631.59,34494,21.88,74158.5,9.59,-4.37,-1.79,0,*79
1532797632.81,34495,21.88,74154.3,9.61,-4.29,-1.75,0,*70
1532797634.0,34496,21.88,74154.0,9.59,-4.33,-1.79,0,*7F
1532797635.2,34497,21.88,74154.5,9.59,-4.33,-1.71,0,*76
1532797636.42,34498,21.88,74156.0,9.61,-4.29,-1.67,0,*7E
1532797637.62,34499,21.88,74154.0,9.59,-4.33,-1.67,0,*7F
1532797638.81,34500,21.88,74152.3,9.59,-4.33,-1.67,0,*7E
1532797640.01,34501,21.88,74158.0,9.59,-4.33,-1.67,0,*7F
1532797641.2,34502,21.88,74154.5,9.59,-4.25,-1.67,0,*7B
1532797642.4,34503,21.88,74156.8,9.59,-4.25,-1.71,0,*7D
1532797643.6,34504,21.88,74152.8,9.59,-4.25,-1.71,0,*7A
1532797644.82,34505,21.88,74156.0,9.61,-4.21,-1.75,0,*70
1532797646.01,34506,21.88,74154.8,9.59,-4.33,-1.79,0,*77
1532797647.23,34507,21.88,74158.8,9.61,-4.29,-1.59,0,*74
1532797648.45,34508,21.88,74156.3,9.61,-4.21,-1.63,0,*7A
1532797649.67,34509,21.88,74158.5,9.61,-4.21,-1.51,0,*7A
1532797650.88,34510,21.88,74156.3,9.61,-4.09,-1.59,0,*70
1532797652.1,34511,21.88,74156.8,9.61,-4.21,-1.59,0,*7B
1532797653.33,34512,21.88,74154.5,9.61,-4.21,-1.67,0,*75
1532797654.54,34513,21.88,74152.0,9.61,-4.17,-1.51,0,*74
1532797655.76,34514,21.88,74158.5,9.61,-4.21,-1.59,0,*7E
1532797656.98,34515,21.88,74152.0,9.61,-4.17,-1.51,0,*72
1532797658.19,34516,21.88,74158.8,9.61,-4.17,-1.51,0,*71
1532797659.41,34517,21.88,74152.5,9.61,-4.17,-1.51,0,*70
1532797660.59,34518,21.88,74156.8,9.59,-4.13,-1.55,0,*74
1532797661.78,34519,21.88,74156.3,9.59,-4.13,-1.55,0,*75
1532797662.97,34520,21.88,74154.8,9.59,-4.13,-1.63,0,*7A
1532797664.19,34521,21.88,74158.8,9.61,-4.13,-1.51,0,*71
1532797665.37,34522,21.88,74156.3,9.63,-4.09,-1.51,0,*7B
1532797666.55,34523,21.88,74152.5,9.63,-4.17,-1.59,0,*7D
1532797667.74,34524,21.88,74152.8,9.63,-4.09,-1.51,0,*7D
1532797668.93,34525,21.88,74154.3,9.63,-4.17,-1.51,0,*73
1532797670.11,34526,21.88,74154.3,9.63,-4.17,-1.51,0,*70
1532797671.3,34527,21.88,74156.8,9.63,-4.09,-1.51,0,*7E
1532797672.48,34528,21.88,74154.5,9.63,-4.09,-1.51,0,*71
1532797673.7,34529,21.88,74156.3,9.63,-4.09,-1.47,0,*77
1532797674.91,34530,21.88,74154.0,9.63,-4.09,-1.47,0,*7F
1532797676.15,34531,21.88,74152.0,9.65,-4.05,-1.39,0,*7D
1532797677.36,34532,21.88,74156.0,9.63,-4.09,-1.47,0,*7D
1532797678.58,34533,21.88,74152.3,9.63,-4.17,-1.47,0,*73
1532797679.79,34534,21.88,74156.0,9.63,-4.05,-1.39,0,*7E
1532797681.0,34535,21.88,74156.3,9.63,-4.05,-1.35,0,*73
1532797682.21,34536,21.88,74158.8,9.63,-4.05,-1.35,0,*70
1532797683.4,34537,21.88,74152.3,9.63,-4.09,-1.33,0,*7B
1532797684.61,34538,21.88,74152.8,9.63,-4.09,-1.35,0,*72
1532797685.82,34539,21.88,74152.5,9.63,-4.09,-1.47,0,*76
1532797687.03,34540,21.88,74156.3,9.63,-4.09,-1.47,0,*78
1532797688.25,34541,21.88,74152.3,9.63,-4.05,-1.39,0,*7C
1532797689.46,34542,21.88,74154.8,9.63,-4.09,-1.39,0,*73
1532797690.67,34543,21.88,74154.8,9.63,-4.09,-1.35,0,*7E
1532797691.88,34544,21.88,74154.3,9.63,-4.05,-1.35,0,*75
1532797693.09,34545,21.88,74158.8,9.63,-4.05,-1.35,0,*74
1532797694.28,34546,21.88,74158.5,9.63,-4.09,-1.29,0,*76
1532797695.46,34547,21.88,74156.5,9.63,-4.05,-1.29,0,*7B
1532797696.68,34548,21.88,74156.8,9.63,-4.09,-1.35,0,*75
1532797697.89,34549,21.88,74156.5,9.65,-4.13,-1.33,0,*7F
1532797699.1,34550,21.88,74152.8,9.63,-4.17,-1.35,0,*73
1532797700.28,34551,21.88,74152.3,9.63,-4.09,-1.25,0,*7C
1532797701.47,34552,21.88,74158.0,9.63,-4.17,-1.29,0,*7C
1532797702.68,34553,21.88,74156.8,9.65,-4.05,-1.25,0,*74
1532797703.89,34554,21.88,74156.5,9.65,-4.05,-1.25,0,*73
1532797705.07,34555,21.88,74160.3,9.63,-4.05,-1.25,0,*74
1532797706.25,34556,21.88,74158.0,9.63,-4.05,-1.25,0,*77
1532797707.47,34557,21.88,74156.3,9.65,-4.05,-1.21,0,*74
1532797708.66,34558,21.88,74158.0,9.63,-4.05,-1.17,0,*78
1532797709.84,34559,21.88,74158.0,9.63,-4.05,-1.17,0,*79
1532797711.06,34560,21.88,74154.3,9.63,-4.01,-1.17,0,*77
1532797712.33,34561,21.88,74158.0,9.65,-4.01,-1.01,0,*77